GMT,Max TemperatureF,Mean TemperatureF,Min TemperatureF,Max Dew PointF,MeanDew PointF,Min DewpointF,Max Humidity, Mean Humidity, Min Humidity, Max Sea Level PressureIn, Mean Sea Level PressureIn, Min Sea Level PressureIn, Max VisibilityMiles, Mean VisibilityMiles, Min VisibilityMiles, Max Wind SpeedMPH, Mean Wind SpeedMPH, Max Gust SpeedMPH,PrecipitationIn, CloudCover, Events, WindDirDegrees
2012-10-1,59,54,46,48,46,43,94,77,50,29.61,29.55,29.47,19,8,4,22,14,,0.03,5,Rain,236
2012-10-2,56,50,45,48,45,42,93,83,56,29.53,29.44,29.30,19,8,6,17,12,25,0.08,5,Rain,222
2012-10-3,55,48,42,45,43,39,93,82,54,29.48,29.35,29.24,19,7,6,20,11,,0.04,5,Rain,252
2012-10-4,56,46,36,45,40,34,93,81,53,29.63,29.57,29.50,19,8,6,14,8,,0.01,4,,251
2012-10-5,56,48,40,43,41,37,100,79,39,29.68,29.54,29.44,16,7,6,13,6,,0.00,4,Fog-Rain,277
2012-10-6,56,48,39,43,38,34,93,71,38,30.04,29.84,29.68,6,6,6,12,9,,0.01,1,,285
2012-10-7,55,45,35,40,36,32,87,70,38,30.18,30.12,30.04,6,6,6,14,8,,0.00,1,,264
2012-10-8,56,46,35,41,36,32,93,73,43,30.12,30.03,29.98,6,6,6,12,7,,0.00,3,,290
2012-10-9,51,42,34,37,34,30,93,72,39,30.09,30.05,30.04,19,9,6,9,6,,0.00,2,,253
2012-10-10,53,42,30,42,36,30,100,82,52,30.04,29.93,29.77,19,9,6,9,5,,0.01,5,,285
2012-10-11,54,44,34,52,47,41,100,92,71,29.78,29.64,29.50,9,4,1,21,6,,0.16,7,Rain,110
2012-10-12,53,50,46,52,47,40,100,88,66,29.52,29.42,29.36,12,5,2,22,16,,0.28,7,Rain,220
2012-10-13,50,48,46,48,45,41,100,88,76,29.57,29.51,29.44,10,6,2,17,12,,0.04,7,Rain,260
2012-10-14,49,46,41,46,43,37,100,92,77,29.68,29.63,29.56,19,7,2,12,6,,0.16,6,Rain,1
2012-10-15,49,40,32,36,34,31,100,77,42,29.60,29.47,29.39,19,7,6,13,7,,0.00,3,,279
2012-10-16,46,38,31,39,37,32,100,84,58,29.48,29.35,29.24,19,8,6,15,8,,0.08,7,Rain,353
2012-10-17,48,38,28,46,38,28,100,92,74,29.50,29.40,29.33,17,5,1,17,7,,0.67,6,Fog-Rain,46
2012-10-18,52,47,42,47,46,42,100,90,76,29.68,29.50,29.39,19,8,4,8,7,,0.01,6,Rain,52
2012-10-19,50,48,45,46,44,43,93,85,75,29.80,29.75,29.68,19,7,6,13,8,,0.01,7,Rain,45
2012-10-20,55,48,42,48,45,41,100,90,61,30.04,29.86,29.74,16,5,0,14,4,,0.00,6,Fog-Rain,273
2012-10-21,54,46,37,49,42,37,100,95,79,30.24,30.13,30.04,14,4,0,5,3,,0.00,4,Fog,308
2012-10-22,50,42,34,46,43,34,100,92,73,30.40,30.32,30.24,19,4,0,9,4,,0.00,7,Fog,16
2012-10-23,51,49,47,51,49,45,100,95,87,30.42,30.39,30.36,19,5,1,8,7,,0.01,8,Rain,46
2012-10-24,52,46,41,49,45,41,100,88,63,30.40,30.31,30.24,19,7,6,9,4,,0.00,5,Fog-Rain,33
2012-10-25,51,43,35,45,38,27,100,79,53,30.27,30.21,30.15,19,7,6,16,4,,0.01,6,Rain,352
2012-10-26,42,36,31,30,26,21,87,64,36,30.24,30.14,30.06,6,6,6,18,8,,0.00,2,Snow,334
2012-10-27,46,38,30,39,31,27,93,72,42,30.20,30.11,29.89,19,8,6,13,8,,0.02,6,Rain,268
2012-10-28,49,43,37,46,43,37,100,90,80,29.86,29.63,29.50,19,8,6,17,11,,0.00,6,Rain,256
2012-10-29,48,42,35,43,37,31,100,85,65,29.77,29.70,29.62,16,7,6,10,6,,0.01,4,Fog-Rain,290
2012-10-30,48,42,35,45,41,32,93,85,75,29.62,29.32,29.00,19,8,6,26,13,,0.02,7,Rain,244
2012-10-31,46,40,35,43,39,36,100,87,71,28.97,28.82,28.74,19,8,6,30,15,36,0.24,7,Rain,244